Location: Shepherdstown, WV
(39.4326°N, 77.8042°W)
Time: 10:39:02
(UTC-04:00)

S-56A Canister/Altair - Pass Details

Date: 31 July 2021
Orbit: 632 x 2500 km, 38.9° (Epoch: 18 September)

Event Time Altitude Azimuth Distance (km) Brightness Sun altitude
Rises 00:25:21 0° 282° (WNW) 5,845 12.3 -31.1°
Reaches altitude 10° 00:32:22 10° 260° (W) 4,458 11.4 -31.4°
Maximum altitude 00:36:56 13° 237° (WSW) 3,900 10.9 -31.6°
Enters shadow 00:37:19 13° 235° (SW) 3,874 10.9 -31.6°
